Location: Chuathbaluk
(61.5726°N, 159.2454°W)
Time: 16:21:09
(UTC+00:00)

ZACube-1 - Pass Details

Date: 23 January 2021
Orbit: 583 x 666 km, 97.6° (Epoch: 04 March)

Event Time Altitude Azimuth Distance (km) Brightness Sun altitude
Rises 17:22:39 0° 15° (NNE) 3,026 ? -13.0°
Reaches altitude 10° 17:25:02 10° 7° (N) 2,108 ? -12.7°
Maximum altitude 17:29:12 35° 303° (WNW) 1,081 ? -12.2°
Drops below altitude 10° 17:33:20 10° 238° (WSW) 2,080 ? -11.8°
Sets 17:35:40 0° 229° (SW) 2,980 ? -11.5°
